This is the latest recevied weather packets stored in our database for station/object KB3GVC-13. If no packets are shown the sender has not sent any weather packets the latest 10 day(s).
| Time | Temp. | Humidity | Pressure | Rain* | Wind** | Luminosity | Snow |
|---|---|---|---|---|---|---|---|
| 1777658802 | 17.78° C | 41% | 1013.9 hPa | 0 mm | - | - | - |
| 1777658497 | 17.22° C | 42% | 1014 hPa | 0 mm | - | - | - |
| 1777658194 | 17.22° C | 43% | 1014 hPa | 0 mm | - | - | - |
| 1777657891 | 18.33° C | 38% | 1014 hPa | 0 mm | - | - | - |
| 1777657588 | 17.78° C | 44% | 1014 hPa | 0 mm | - | - | - |
| 1777657286 | 17.22° C | 43% | 1014 hPa | 0 mm | - | - | - |
| 1777656983 | 16.67° C | 38% | 1014.1 hPa | 0 mm | - | - | - |
| 1777656680 | 17.22° C | 41% | 1014.1 hPa | 0 mm | - | - | - |
| 1777656375 | 17.22° C | 40% | 1013.8 hPa | 0 mm | - | - | - |
| 1777656070 | 16.67° C | 40% | 1014.1 hPa | 0 mm | - | - | - |
| 1777655767 | 16.67° C | 40% | 1014.1 hPa | 0 mm | - | - | - |
| 1777655464 | 16.67° C | 40% | 1014.3 hPa | 0 mm | - | - | - |
| 1777655161 | 16.67° C | 39% | 1014.1 hPa | 0 mm | - | - | - |
| 1777654857 | 16.11° C | 41% | 1014 hPa | 0 mm | - | - | - |
| 1777654555 | 16.67° C | 40% | 1014.4 hPa | 0 mm | - | - | - |
| 1777654253 | 17.22° C | 40% | 1014.3 hPa | 0 mm | - | - | - |
| 1777653950 | 16.11° C | 48% | 1014.4 hPa | 0 mm | - | - | - |
| 1777653647 | 16.11° C | 42% | 1014.5 hPa | 0 mm | - | - | - |
| 1777653343 | 16.11° C | 45% | 1014.5 hPa | 0 mm | - | - | - |
| 1777653040 | 16.11° C | 43% | 1014.5 hPa | 0 mm | - | - | - |
| 1777652737 | 16.11° C | 41% | 1014.8 hPa | 0 mm | - | - | - |
| 1777652433 | 15.56° C | 42% | 1014.8 hPa | 0 mm | - | - | - |
| 1777652131 | 15.56° C | 41% | 1014.7 hPa | 0 mm | - | - | - |
| 1777651827 | 16.11° C | 42% | 1014.9 hPa | 0 mm | - | - | - |
| 1777651524 | 16.11° C | 45% | 1014.9 hPa | 0 mm | - | - | - |
* Rain latest hour (hover to see other rain measurements)
** Current wind speed in m/s (hover to see current wind gust speed)